| time (UTC) | temp C | wind direction | speed KPH | gust KPH | rain 1hr cm | rain 24hr cm | rain mn cm | humidity % | barometer mb |
| 20260506113040 | 9 | 318 | 0.0 | 3.2 | 0.00 | 0.00 | 0.00 | 59 | 1009.2 |
| 20260506111539 | 11 | 318 | 0.0 | 1.6 | 0.00 | 0.00 | 0.00 | 53 | 1009.0 |
| 20260506110034 | 11 | 318 | 3.2 | 6.4 | 0.00 | 0.00 | 0.00 | 53 | 1008.7 |
| 20260506104532 | 11 | 314 | 1.6 | 6.4 | 0.00 | 0.00 | 0.00 | 51 | 1008.7 |
| 20260506103032 | 11 | 323 | 3.2 | 8.0 | 0.00 | 0.00 | 0.00 | 52 | 1008.7 |
| 20260506101529 | 11 | 29 | 0.0 | 4.8 | 0.00 | 0.00 | 0.00 | 52 | 1008.5 |
| 20260506100027 | 11 | 300 | 1.6 | 6.4 | 0.00 | 0.00 | 0.00 | 50 | 1008.4 |
| 20260506094532 | 11 | 241 | 0.0 | 1.6 | 0.00 | 0.00 | 0.00 | 50 | 1008.2 |
| 20260506093039 | 11 | 39 | 0.0 | 0.0 | 0.00 | 0.00 | 0.00 | 50 | 1007.9 |
| 20260506091521 | 12 | 39 | 0.0 | 0.0 | 0.00 | 0.00 | 0.00 | 50 | 1007.8 |
| 20260506090015 | 13 | 39 | 0.0 | 0.0 | 0.00 | 0.00 | 0.00 | 47 | 1007.7 |
| 20260506084511 | 14 | 39 | 0.0 | 0.0 | 0.00 | 0.00 | 0.00 | 42 | 1007.7 |
| 20260506083009 | 15 | 300 | 0.0 | 4.8 | 0.00 | 0.00 | 0.00 | 38 | 1007.6 |
| 20260506081505 | 16 | 317 | 0.0 | 9.7 | 0.00 | 0.00 | 0.00 | 37 | 1007.6 |
| 20260506073104 | 16 | 273 | 6.4 | 12.9 | 0.00 | 0.00 | 0.00 | 31 | 1007.2 |
| 20260506071556 | 16 | 285 | 3.2 | 9.7 | 0.00 | 0.00 | 0.00 | 32 | 1006.9 |
| 20260506070114 | 17 | 264 | 3.2 | 9.7 | 0.00 | 0.00 | 0.00 | 31 | 1006.8 |
| 20260506061545 | 18 | 235 | 4.8 | 11.3 | 0.00 | 0.00 | 0.00 | 29 | 1006.5 |
| 20260506044552 | 20 | 267 | 11.3 | 19.3 | 0.00 | 0.00 | 0.00 | 24 | 1005.8 |
| 20260506043038 | 21 | 250 | 12.9 | 20.9 | 0.00 | 0.00 | 0.00 | 23 | 1005.5 |
| 20260506041547 | 21 | 231 | 12.9 | 29.0 | 0.00 | 0.00 | 0.00 | 23 | 1005.4 |
| 20260506040042 | 21 | 266 | 14.5 | 29.0 | 0.00 | 0.00 | 0.00 | 22 | 1005.1 |
| 20260506034537 | 21 | 239 | 12.9 | 29.0 | 0.00 | 0.00 | 0.00 | 21 | 1004.9 |
| 20260506033035 | 22 | 229 | 12.9 | 30.6 | 0.00 | 0.00 | 0.00 | 21 | 1004.8 |
| 20260506031548 | 22 | 238 | 20.9 | 29.0 | 0.00 | 0.00 | 0.00 | 21 | 1004.4 |
| 20260506030038 | 22 | 245 | 14.5 | 30.6 | 0.00 | 0.00 | 0.00 | 22 | 1004.3 |
| 20260506024536 | 22 | 284 | 14.5 | 29.0 | 0.00 | 0.00 | 0.00 | 22 | 1003.9 |
| 20260506023036 | 23 | 223 | 19.3 | 32.2 | 0.00 | 0.00 | 0.00 | 22 | 1003.8 |
| 20260506021532 | 23 | 235 | 22.5 | 30.6 | 0.00 | 0.00 | 0.00 | 23 | 1003.4 |
| 20260506020031 | 23 | 237 | 16.1 | 30.6 | 0.00 | 0.00 | 0.00 | 22 | 1003.2 |
| 20260506014531 | 23 | 246 | 27.4 | 43.5 | 0.00 | 0.00 | 0.00 | 21 | 1002.9 |
| 20260506013030 | 23 | 243 | 22.5 | 33.8 | 0.00 | 0.00 | 0.00 | 22 | 1002.7 |
| 20260506011530 | 24 | 229 | 17.7 | 37.0 | 0.00 | 0.00 | 0.00 | 22 | 1002.6 |
| 20260506010032 | 25 | 249 | 16.1 | 32.2 | 0.00 | 0.00 | 0.00 | 22 | 1002.6 |
| 20260506004537 | 25 | 231 | 22.5 | 35.4 | 0.00 | 0.00 | 0.00 | 22 | 1002.4 |
| 20260506003027 | 25 | 271 | 17.7 | 37.0 | 0.00 | 0.00 | 0.00 | 22 | 1002.4 |
| 20260506001526 | 25 | 259 | 17.7 | 32.2 | 0.00 | 0.00 | 0.00 | 23 | 1002.5 |
| 20260506000023 | 25 | 255 | 12.9 | 32.2 | 0.00 | 0.00 | 0.00 | 26 | 1002.3 |
| 20260505234548 | 24 | 264 | 14.5 | 37.0 | 0.00 | 0.00 | 0.00 | 27 | 1002.4 |
| 20260505233021 | 25 | 245 | 12.9 | 29.0 | 0.00 | 0.00 | 0.00 | 27 | 1002.5 |
| 20260505231520 | 24 | 255 | 16.1 | 30.6 | 0.00 | 0.00 | 0.00 | 28 | 1002.5 |
| 20260505230018 | 25 | 289 | 11.3 | 22.5 | 0.00 | 0.00 | 0.00 | 28 | 1002.6 |
| 20260505224525 | 24 | 262 | 17.7 | 38.6 | 0.00 | 0.00 | 0.00 | 28 | 1002.8 |
| 20260505223013 | 24 | 254 | 12.9 | 29.0 | 0.00 | 0.00 | 0.00 | 32 | 1003.2 |
| 20260505221512 | 24 | 295 | 12.9 | 25.7 | 0.00 | 0.00 | 0.00 | 31 | 1003.5 |
| 20260505220011 | 24 | 297 | 14.5 | 32.2 | 0.00 | 0.00 | 0.00 | 31 | 1003.6 |
| 20260505214508 | 23 | 239 | 14.5 | 30.6 | 0.00 | 0.00 | 0.00 | 33 | 1003.9 |
| 20260505213005 | 23 | 264 | 17.7 | 29.0 | 0.00 | 0.00 | 0.00 | 33 | 1004.4 |
| 20260505211503 | 23 | 281 | 12.9 | 32.2 | 0.00 | 0.00 | 0.00 | 34 | 1004.5 |
| 20260505210003 | 23 | 235 | 17.7 | 32.2 | 0.00 | 0.00 | 0.00 | 34 | 1004.7 |
| 20260505204602 | 23 | 259 | 16.1 | 33.8 | 0.00 | 0.00 | 0.00 | 35 | 1005.0 |
| 20260505203058 | 22 | 305 | 8.0 | 25.7 | 0.00 | 0.00 | 0.00 | 38 | 1005.2 |
| 20260505201606 | 22 | 296 | 16.1 | 27.4 | 0.00 | 0.00 | 0.00 | 38 | 1005.5 |
| 20260505194602 | 21 | 328 | 14.5 | 32.2 | 0.00 | 0.00 | 0.00 | 42 | 1005.7 |
| 20260505193052 | 21 | 295 | 11.3 | 29.0 | 0.00 | 0.00 | 0.00 | 41 | 1006.4 |
| 20260505191554 | 21 | 282 | 9.7 | 27.4 | 0.00 | 0.00 | 0.00 | 40 | 1006.1 |
| 20260505190052 | 21 | 299 | 11.3 | 38.6 | 0.00 | 0.00 | 0.00 | 41 | 1006.2 |
| 20260505184550 | 21 | 233 | 12.9 | 30.6 | 0.00 | 0.00 | 0.00 | 37 | 1006.4 |
| 20260505183051 | 22 | 259 | 17.7 | 27.4 | 0.00 | 0.00 | 0.00 | 34 | 1006.1 |
| 20260505181548 | 22 | 255 | 14.5 | 29.0 | 0.00 | 0.00 | 0.00 | 35 | 1006.0 |
| 20260505180046 | 22 | 290 | 8.0 | 20.9 | 0.00 | 0.00 | 0.00 | 34 | 1005.8 |
| 20260505174547 | 22 | 283 | 12.9 | 22.5 | 0.00 | 0.00 | 0.00 | 35 | 1005.9 |
| 20260505173047 | 22 | 233 | 8.0 | 19.3 | 0.00 | 0.00 | 0.00 | 36 | 1005.9 |
| 20260505171543 | 22 | 233 | 1.6 | 16.1 | 0.00 | 0.00 | 0.00 | 36 | 1005.9 |
| 20260505170040 | 21 | 229 | 4.8 | 12.9 | 0.00 | 0.00 | 0.00 | 37 | 1006.0 |
| 20260505164538 | 21 | 250 | 1.6 | 6.4 | 0.00 | 0.00 | 0.00 | 38 | 1006.0 |
| 20260505163037 | 20 | 292 | 0.0 | 8.0 | 0.00 | 0.00 | 0.00 | 40 | 1006.0 |
| 20260505161540 | 20 | 222 | 0.0 | 6.4 | 0.00 | 0.00 | 0.00 | 41 | 1006.1 |
| 20260505153040 | 18 | 306 | 8.0 | 14.5 | 0.00 | 0.00 | 0.00 | 46 | 1006.1 |
| 20260505151536 | 18 | 332 | 6.4 | 12.9 | 0.00 | 0.00 | 0.00 | 47 | 1006.0 |
| 20260505124523 | 16 | 310 | 3.2 | 12.9 | 0.00 | 0.00 | 0.00 | 52 | 1006.3 |
| 20260505123021 | 16 | 315 | 3.2 | 8.0 | 0.00 | 0.00 | 0.00 | 51 | 1006.0 |
| 20260505121520 | 16 | 305 | 4.8 | 12.9 | 0.00 | 0.00 | 0.00 | 50 | 1006.0 |
| 20260505120018 | 16 | 328 | 9.7 | 19.3 | 0.00 | 0.00 | 0.00 | 49 | 1005.7 |
| 20260505114515 | 16 | 264 | 11.3 | 24.1 | 0.00 | 0.00 | 0.00 | 49 | 1005.6 |